Location: Unspecified
(58.7196°N, 0.0000°E)
Time: 04:31:17
(UTC+00:00)

Orbcomm D5 (FM33) - Visible Passes

Search period start: 04 April 2026 00:00
Search period end: 14 April 2026 00:00
Orbit: 751 x 761 km, 45.0° (Epoch: 28 March)

Date Brightness Start Highest point End Pass type
(mag) Time Alt. Az. Time Alt. Az. Time Alt. Az.
4 Apr 9.6 19:48:27 10° SSW 19:51:55 18° S 19:55:16 10° SE visible
4 Apr 9.7 21:32:18 10° SW 21:35:11 17° SSW 21:35:11 17° SSW visible
5 Apr 9.6 20:49:13 10° SW 20:52:40 18° S 20:54:05 16° S visible
6 Apr 9.6 20:06:12 10° SW 20:09:44 18° S 20:12:57 11° SE visible
6 Apr 10.0 21:51:15 10° SW 21:52:52 12° SSW 21:52:52 12° SSW visible
7 Apr 9.9 21:07:48 10° SW 21:10:25 14° SSW 21:11:43 13° S visible
8 Apr 9.9 20:24:30 10° SW 20:27:31 15° SSW 20:30:31 10° SSE visible
9 Apr 9.9 19:41:19 10° SW 19:44:36 17° SSW 19:47:51 10° SSE visible
10 Apr 10.2 20:44:27 10° SW 20:45:10 10° SSW 20:45:53 10° SSW visible
11 Apr 10.2 20:00:18 10° SW 20:02:17 12° SSW 20:04:16 10° S visible
